User: anonymous   Login
Location: Copeville
(33.0796°N, 96.4155°W)
Time: 15:44:37
(UTC+00:00)
Language:

Cosmos 1515 Rocket - Orbit

View from above orbital plane
View from above orbital plane
View from above satellite
View from above satellite

Ground track
Ground track

The orbit data is extracted from the following two-line orbital elements,

1 14552U 83122B   22146.16221242  .00000354  00000-0  39942-4 0  9991
2 14552  82.5246 187.5559 0016457 335.2011  24.8411 14.83677834 76637
Epoch (UTC): 26 May 2022 03:53:35
Eccentricity: 0.0016457
inclination: 82.5246°
perigee height: 606 km
apogee height: 629 km
right ascension of ascending node: 187.5559°
argument of perigee: 335.2011°
revolutions per day: 14.83677834
mean anomaly at epoch: 24.8411°
orbit number at epoch: 7663

The dashed part of the orbit path shows where the satellite is in the earth's shadow,  

DLR